When you browse on this site, cookies collect data to enhance your experience and personalize the content and advertising you see.
Visit our Privacy Policy to learn more. By continuing to use the site, you agree to this use of cookies and data.
  • In Hungary
  • List of Countries
  • For 7 days
  • Water Temperature
  • Satellite Maps
  • Weather Map
  • News
  • Weather Widgets
  • user-avatar
    Login

    Hourly Weather Veszprem

    Today, 16 January, Wednesday

    Time Temperature Precipitation Wind Pressure Humidity
    00:00 -2°C° 0 mm 4 mps 738 mmHg 70%
    01:00 -2°C° 0 mm 4 mps 737 mmHg 71%
    02:00 -1°C° 0 mm 3 mps 737 mmHg 72%
    03:00 -1°C° 0 mm 3 mps 737 mmHg 72%
    04:00 -1°C° 0 mm 3 mps 737 mmHg 73%
    05:00 -1°C° 0 mm 3 mps 737 mmHg 73%
    06:00 -1°C° 0 mm 3 mps 737 mmHg 73%
    07:00 0°C° 0 mm 3 mps 737 mmHg 74%
    08:00 0°C° 0 mm 3 mps 738 mmHg 73%
    09:00 +1°C° 0 mm 3 mps 738 mmHg 72%
    10:00 +2°C° 0 mm 3 mps 739 mmHg 72%
    11:00 +2°C° 0 mm 3 mps 738 mmHg 71%
    12:00 +4°C° 0 mm 2 mps 738 mmHg 71%
    13:00 +5°C° 0 mm 2 mps 738 mmHg 70%
    14:00 +4°C° 0 mm 2 mps 738 mmHg 73%
    15:00 +3°C° 0 mm 2 mps 738 mmHg 76%
    16:00 +2°C° 0 mm 2 mps 738 mmHg 78%
    17:00 +3°C° 0 mm 1 mps 737 mmHg 79%
    18:00 +2°C° 0 mm 1 mps 737 mmHg 80%
    19:00 +2°C° 0 mm 1 mps 737 mmHg 81%
    20:00 +1°C° 0 mm 2 mps 737 mmHg 84%
    21:00 +1°C° 0 mm 2 mps 737 mmHg 87%
    22:00 +1°C° 0 mm 2 mps 737 mmHg 89%
    23:00 0°C° 0 mm 3 mps 737 mmHg 89%

    Tomorrow, 17 January, Thursday

    Time Temperature Precipitation Wind Pressure Humidity
    00:00 +1°C° 0 mm 3 mps 736 mmHg 89%
    01:00 0°C° 0 mm 4 mps 736 mmHg 89%
    02:00 0°C° 0 mm 4 mps 736 mmHg 89%
    03:00 0°C° 0 mm 4 mps 736 mmHg 89%
    04:00 +1°C° 0 mm 4 mps 736 mmHg 89%
    05:00 +1°C° 0 mm 4 mps 736 mmHg 89%
    06:00 +1°C° 0 mm 4 mps 736 mmHg 89%
    07:00 +1°C° 0 mm 4 mps 736 mmHg 89%
    08:00 +2°C° 0 mm 5 mps 736 mmHg 87%
    09:00 +3°C° 0 mm 5 mps 736 mmHg 86%
    10:00 +5°C° 0 mm 5 mps 737 mmHg 84%
    11:00 +6°C° 0 mm 5 mps 736 mmHg 82%
    12:00 +7°C° 0 mm 5 mps 736 mmHg 79%
    13:00 +7°C° 0 mm 5 mps 736 mmHg 76%
    14:00 +7°C° 0 mm 5 mps 735 mmHg 79%
    15:00 +6°C° 0 mm 5 mps 735 mmHg 81%
    16:00 +6°C° 0 mm 5 mps 735 mmHg 84%
    17:00 +6°C° 0.2 mm 5 mps 735 mmHg 85%
    18:00 +5°C° 0.2 mm 4 mps 735 mmHg 86%
    19:00 +5°C° 0.2 mm 4 mps 735 mmHg 87%
    20:00 +5°C° 0.8 mm 4 mps 735 mmHg 90%
    21:00 +4°C° 0.8 mm 3 mps 736 mmHg 92%
    22:00 +5°C° 0.8 mm 2 mps 736 mmHg 94%
    23:00 +4°C° 1.9 mm 2 mps 736 mmHg 92%

    Day after tomorrow, 18 January, Friday

    Time Temperature Precipitation Wind Pressure Humidity
    00:00 +4°C° 1.9 mm 2 mps 736 mmHg 90%
    01:00 +4°C° 1.9 mm 1 mps 736 mmHg 87%
    02:00 +3°C° 0.3 mm 2 mps 737 mmHg 84%
    03:00 +3°C° 0.3 mm 2 mps 737 mmHg 80%
    04:00 +2°C° 0.3 mm 3 mps 737 mmHg 77%
    05:00 +2°C° 0.2 mm 3 mps 738 mmHg 77%
    06:00 +1°C° 0.2 mm 4 mps 739 mmHg 78%
    07:00 +1°C° 0.2 mm 4 mps 740 mmHg 78%
    08:00 +1°C° 0 mm 5 mps 740 mmHg 76%
    09:00 0°C° 0 mm 5 mps 741 mmHg 73%
    10:00 0°C° 0 mm 5 mps 742 mmHg 70%
    11:00 0°C° 0 mm 5 mps 742 mmHg 68%
    12:00 +1°C° 0 mm 5 mps 742 mmHg 65%
    13:00 +1°C° 0 mm 4 mps 742 mmHg 62%
    14:00 +1°C° 0 mm 3 mps 742 mmHg 65%
    15:00 +2°C° 0 mm 2 mps 742 mmHg 68%
    16:00 +3°C° 0 mm 1 mps 742 mmHg 70%
    17:00 +2°C° 0 mm 1 mps 743 mmHg 72%
    18:00 +1°C° 0 mm 0 mps 743 mmHg 73%
    19:00 0°C° 0 mm 0 mps 743 mmHg 74%
    20:00 0°C° 0 mm 0 mps 743 mmHg 74%
    21:00 0°C° 0 mm 0 mps 743 mmHg 73%
    22:00 +1°C° 0 mm 0 mps 743 mmHg 73%
    23:00 0°C° 0 mm 0 mps 743 mmHg 73%

    19 January, Saturday

    Time Temperature Precipitation Wind Pressure Humidity
    00:00 0°C° 0 mm 0 mps 743 mmHg 74%
    01:00 +1°C° 0 mm 1 mps 743 mmHg 74%
    02:00 +1°C° 0 mm 1 mps 743 mmHg 76%
    03:00 +1°C° 0 mm 1 mps 742 mmHg 77%
    04:00 +1°C° 0 mm 1 mps 742 mmHg 79%
    05:00 -2°C° 0.1 mm 2 mps 742 mmHg 80%
    06:00 -2°C° 0.1 mm 2 mps 742 mmHg 81%
    07:00 -2°C° 0.1 mm 2 mps 742 mmHg 82%
    08:00 -2°C° 0.3 mm 2 mps 742 mmHg 84%
    09:00 -2°C° 0.3 mm 2 mps 742 mmHg 86%
    10:00 -2°C° 0.3 mm 2 mps 742 mmHg 87%
    11:00 -1°C° 0.2 mm 2 mps 742 mmHg 86%
    12:00 -1°C° 0.2 mm 3 mps 741 mmHg 84%
    13:00 -1°C° 0.2 mm 3 mps 741 mmHg 82%
    14:00 -1°C° 0.2 mm 3 mps 741 mmHg 84%
    15:00 -1°C° 0.2 mm 3 mps 740 mmHg 86%
    16:00 -1°C° 0.2 mm 3 mps 740 mmHg 88%
    17:00 -1°C° 0.2 mm 3 mps 740 mmHg 89%
    18:00 -2°C° 0.2 mm 3 mps 740 mmHg 91%
    19:00 -2°C° 0.2 mm 3 mps 740 mmHg 93%
    20:00 -2°C° 0.2 mm 2 mps 740 mmHg 93%
    21:00 -2°C° 0.2 mm 2 mps 740 mmHg 94%
    22:00 -2°C° 0.2 mm 2 mps 740 mmHg 94%
    23:00 -2°C° 0.3 mm 2 mps 740 mmHg 95%

    20 January, Sunday

    Time Temperature Precipitation Wind Pressure Humidity
    00:00 -2°C° 0.3 mm 2 mps 740 mmHg 95%
    01:00 -3°C° 0.3 mm 2 mps 740 mmHg 95%
    02:00 -1°C° 0.1 mm 1 mps 740 mmHg 95%
    03:00 -1°C° 0.1 mm 1 mps 739 mmHg 95%
    04:00 -1°C° 0.1 mm 1 mps 739 mmHg 96%
    05:00 -1°C° 0 mm 1 mps 740 mmHg 95%
    06:00 -1°C° 0 mm 1 mps 740 mmHg 95%
    07:00 -2°C° 0 mm 1 mps 740 mmHg 95%
    08:00 -1°C° 0 mm 1 mps 741 mmHg 92%
    09:00 -2°C° 0 mm 2 mps 741 mmHg 89%
    10:00 -2°C° 0 mm 2 mps 741 mmHg 87%
    11:00 -1°C° 0 mm 3 mps 741 mmHg 83%
    12:00 0°C° 0 mm 3 mps 741 mmHg 80%
    13:00 0°C° 0 mm 3 mps 742 mmHg 77%
    14:00 0°C° 0 mm 3 mps 742 mmHg 78%
    15:00 -1°C° 0 mm 2 mps 742 mmHg 79%
    16:00 -1°C° 0 mm 2 mps 742 mmHg 80%
    17:00 -2°C° 0 mm 2 mps 743 mmHg 80%
    18:00 -3°C° 0 mm 2 mps 743 mmHg 80%
    19:00 -4°C° 0 mm 2 mps 744 mmHg 80%
    20:00 -2°C° 0 mm 1 mps 744 mmHg 79%
    21:00 -2°C° 0 mm 1 mps 745 mmHg 79%
    22:00 -2°C° 0 mm 1 mps 745 mmHg 79%
    23:00 -2°C° 0 mm 1 mps 746 mmHg 79%

    21 January, Monday

    Time Temperature Precipitation Wind Pressure Humidity
    00:00 -2°C° 0 mm 1 mps 746 mmHg 79%
    01:00 -2°C° 0 mm 1 mps 746 mmHg 79%
    02:00 -3°C° 0 mm 1 mps 747 mmHg 79%
    03:00 -3°C° 0 mm 1 mps 747 mmHg 79%
    04:00 -4°C° 0 mm 0 mps 747 mmHg 80%
    05:00 -4°C° 0 mm 0 mps 748 mmHg 80%
    06:00 -4°C° 0 mm 0 mps 748 mmHg 80%
    07:00 -4°C° 0 mm 0 mps 749 mmHg 81%
    08:00 -3°C° 0 mm 0 mps 749 mmHg 76%
    09:00 -1°C° 0 mm 1 mps 749 mmHg 72%
    10:00 -1°C° 0 mm 1 mps 750 mmHg 67%
    11:00 -2°C° 0 mm 2 mps 750 mmHg 65%
    12:00 -2°C° 0 mm 2 mps 750 mmHg 62%
    13:00 -1°C° 0 mm 3 mps 749 mmHg 60%
    14:00 -2°C° 0 mm 3 mps 749 mmHg 63%
    15:00 -2°C° 0 mm 2 mps 749 mmHg 66%
    16:00 -3°C° 0 mm 2 mps 749 mmHg 70%
    17:00 -4°C° 0 mm 2 mps 749 mmHg 72%
    18:00 -4°C° 0 mm 2 mps 748 mmHg 73%
    19:00 -5°C° 0 mm 2 mps 748 mmHg 75%
    20:00 -5°C° 0 mm 2 mps 748 mmHg 75%
    21:00 -6°C° 0 mm 3 mps 748 mmHg 75%
    22:00 -6°C° 0 mm 3 mps 748 mmHg 76%
    23:00 -7°C° 0 mm 3 mps 747 mmHg 76%
    Show more